Starlink 11522

operational
NORAD ID: 63141 Int'l Des: 2025-043 Owner: SPXS Country: US Constellation: starlink
LEOCIRCULAR

Über Starlink 11522

Beschreibung wird geladen...

Live-Position

3D-Globus wird geladen...

Nächste Überflüge

Höhenverlauf

Altitude vs Time

uPlot chart will show altitude changes over time

Zweizeiliger Elementsatz

1 63141U 25043K 26035.17750260 .00273005 00000-0 20626-2 0 9998
2 63141 43.0020 92.5266 0002068 267.0194 93.0437 15.70832911 54025
Epoch: 4. Feb. 2026 • Age: 7 hours

Aktueller Status

Höhe 358.7 km
Geschwindigkeit 7.70 km/s
Subsatellitenpunkt -15.92°S, 14.54°W
Startdatum 3. März 2025
Alter 0.9 years
Typ internet

Technische Details

Klassifizierung Payload
Masse 960.00 kg
Trockenmasse 910.00 kg
Gesamtmasse 960.00 kg
Länge 0.30 m
Durchmesser 4.10 m
Spannweite 29.00 m
Form Box + pan
Hersteller SPXS
Bus-Typ Starlink V2MD
Phasenstatus In Orbit
Besitzer/Staat SPXS/US

Große Konstellationen

Loading constellations...